Regional Weather Roundup
Issued by NWS

Home | Current Version | Previous Version | Graphics & Text | Print | Product List | Glossary On
Versions: 1 2 3 4 5 6 7 8 9 10 11 12 13 14 15 16 17 18 19 20 21 22 23 24 25 26 27 28 29 30 31 32 33 34 35 36 37 38 39 40 41 42 43 44 45 46 47 48 49 50
000
ASUS43 KDMX 290307
RWRIA

WEATHER ROUNDUP FOR IOWA
NATIONAL WEATHER SERVICE DES MOINES IA
1000 PM CDT TUE JUL 28 2015

NOTE: "FAIR" INDICATES FEW OR NO CLOUDS BELOW 12,000 FEET WITH NO
SIGNIFICANT WEATHER AND/OR OBSTRUCTIONS TO VISIBILITY.

* - THESE STATIONS ARE NOT NWS STATIONS...THUS NOT UNDER NWS
QUALITY CONTROL.  THEY ALSO DO NOT REPORT WEATHER SUCH
AS PRECIPITATION OR FOG.

IAZ001>003-012>014-020>022-031>034-043>046-290400-
   NORTHWEST IOWA

CITY           SKY/WX    TMP DP  RH WIND       PRES   REMARKS
CARROLL *      CLOUDY    73  73 100 N5        29.98R
CHEROKEE *     PTCLDY    66  64  94 CALM      30.01R
DENISON *      CLOUDY    72  64  78 N8        29.97R
LE MARS *      CLEAR     68  63  83 CALM      30.02R
ORANGE CITY *  CLEAR     64  61  88 CALM      30.02R
SHELDON *      CLEAR     64  63  94 CALM      30.00R
SIOUX CITY     CLEAR     70  61  73 E3        30.00R
SPENCER        PTCLDY    64  60  87 W6        30.00R
STORM LAKE *   CLEAR     70  63  78 NW10      30.01R
$$

IAZ055>058-069>071-079>083-090>094-290400-
   SOUTHWEST IOWA

CITY           SKY/WX    TMP DP  RH WIND       PRES   REMARKS
ATLANTIC *     CLOUDY    75  72  88 N8        29.98R
AUDUBON *      PTCLDY    73  70  88 N5        29.99R
CLARINDA *     RAIN      75  75 100 NE15G24   29.93S VSB 1
COUNCIL BLFS *   N/A     73  68  83 N12       29.97R
CRESTON *      LGT RAIN  72  72 100 NW8G15    30.00R
HARLAN  *      CLOUDY    73  73 100 N7        30.01R
LAMONI         LGT RAIN  74  69  85 NE15      29.96R
RED OAK *      LGT RAIN  75  72  88 CALM      29.97R
SHENANDOAH *   LGT RAIN  73  73 100 N15G22    29.95R
$$

IAZ047>049-059>061-072>074-084-290400-
   CENTRAL IOWA

CITY           SKY/WX    TMP DP  RH WIND       PRES   REMARKS
AMES           TSTM      71  71 100 SE5       29.97R FOG
ANKENY *       CLOUDY    70  70 100 CALM      29.93F
CHARITON *     RAIN      70  68  94 SW6       30.02R
DES MOINES     TSTM      72  69  90 S10       29.94F
GRINNELL*      RAIN      70  68  94 NW3       30.01R
KNOXVILLE *    LGT RAIN  72  64  78 SE5G16    29.94F
MARSHALLTOWN   LGT RAIN  73  72  96 CALM      29.96R
PELLA *        RAIN      72  72 100 SE7G13    29.95F
PERRY *        LGT RAIN  70  70 100 SE5       29.97R
$$

IAZ004>006-015-016-023>025-035-036-290400-
   NORTH CENTRAL IOWA

CITY           SKY/WX    TMP DP  RH WIND       PRES   REMARKS
ALGONA *       MOCLDY    73  64  73 NW7       29.99R
CLARION *      CLOUDY    75  73  94 W5        29.98R
ESTHERVILLE    PTCLDY    65  61  87 W7        29.99R
FORT DODGE *   CLOUDY    73  70  88 CALM      29.98R
MASON CITY     CLOUDY    73  72  96 W6        29.97R
FOREST CITY *  MOCLDY    72  72 100 W3        29.97R
IOWA FALLS *   CLOUDY    75  72  88 S6        29.99R
$$

IAZ007>011-017>019-026>030-037>042-050>054-066-290400-
   NORTHEAST IOWA

CITY           SKY/WX    TMP DP  RH WIND       PRES   REMARKS
CEDAR RAPIDS   LGT RAIN  72  72 100 W3        29.93R
CHARLES CITY * CLOUDY    73  73 100 W3        29.95R
CLINTON *      CLOUDY    75  72  88 E3        29.93R
DECORAH *      CLOUDY    73  72  94 CALM      29.93R
DUBUQUE        CLOUDY    74  72  93 CALM      29.94R
MONTICELLO *   DRIZZLE   73  72  94 CALM      29.92R
OELWEIN *      MOCLDY    72  72 100 CALM      29.95R
WATERLOO       CLOUDY    73  71  93 SW5       29.94R
$$

IAZ064-065-067-068-078-290400-
   EAST CENTRAL IOWA

CITY           SKY/WX    TMP DP  RH WIND       PRES   REMARKS
DAVENPORT      CLOUDY    77  74  90 N7        29.92R
IOWA CITY      CLOUDY    75  71  87 CALM      29.93R
MT. PLEASANT * CLOUDY    77  66  69 SW5       29.91R
MUSCATINE *    MOCLDY    79  75  89 E6        29.91R HX  82
QUAD CITIES    CLOUDY    79  74  84 S6        29.90R HX  82
$$

IAZ062-063-075>077-085>089-095>099-290400-
   SOUTHEAST IOWA

CITY           SKY/WX    TMP DP  RH WIND       PRES   REMARKS
BURLINGTON     MOCLDY    80  75  84 SW8       29.90S HX  85
FAIRFIELD *    CLOUDY    72  68  88 CALM      29.92R
FORT MADISON * CLEAR     75  75 100 SW5       29.93R
KEOKUK *       CLEAR     79  73  83 W7        29.92R HX  82
OSKALOOSA *    CLOUDY    70  68  94 NW8G29    29.96R
CENTERVILLE *  PTCLDY    73  68  83 N35G46    30.06R
OTTUMWA          N/A    N/A N/A N/A MISG      29.93R
WASHINGTON *   CLEAR     73  70  88 NW8       29.93R
$$

ABBREVIATIONS USED IN REMARKS
   TC - TEMPERATURES IN CELSIUS
  WCI - WIND CHILL INDEX
   HX - HEAT INDEX
  VSB - VISIBILITY
$$




USA.gov is the U.S. government's official web portal to all federal, state and local government web resources and services.